Погода в Помоздине

Россия / Республика Коми     62°11′42″N   54°11′06″E
темп.,
°C
ветер,
м/с
пор.,
м/с
влажн.,
%
обл.,
%
осадки,
мм/ч
давл.,
гПа
погр.,
м
24 мая, вт
вт2400:00−1вюв269773 0.0 1002110
03:00−1вюв2798100 0.0 1003140
06:00+4юв3688100 0.0 1005391
09:00+8вюв4671100 0.4 10051284
12:00+7юв4781100 0.9 1007895
15:00+8вюв3581100 1.6 1008837
18:00+7вюв3691100 0.5 1009645
21:00+3ю1297100 2.9 101188
25 мая, ср
ср2500:00+2вюв259843 0.0 1012132
03:00+1в269843 0.0 1013136
06:00+6в258759 0.0 1012350
09:00+11всв3566100 0.0 10111169
12:00+9всв41091100 1.3 1010677
15:00+7св3993100 3.8 1009888
18:00+7св2797100 0.2 1007514
21:00+6ссв12100100 1.7 100575
26 мая, чт
чт2600:00+6з22100100 6.3 100289
03:00+6юз2699100 10.4 1002264
06:00+7ю2698100 0.1 1004353
09:00+8ююв2490100 0.1 1004504
12:00+12вюв356877 0.1 10031250
15:00+8юв3792100 7.5 1004448
18:00+4ю51095100 0.4 1005762
21:00+4ююз41196100 0.4 1007820
27 мая, пт
пт2700:00+5ююв3691100 0.0 1008366
03:00+2ююв269828 0.0 1008180
06:00+6ююв358514 0.0 1008425
09:00+10ю356055 0.0 10071472
12:00+11ю4558100 0.1 10071475
15:00+10ююв3570100 0.3 1006927
18:00+11юв2564100 0.1 10061103
21:00+8юв3990100 0.2 1006382
28 мая, сб
сб2800:00+7вюв3995100 0.3 1005389
03:00+8юв41197100 1.4 1004622
06:00+9юв51196100 0.3 1003833
09:00+10ююв41295100 1.9 10031062
12:00+10ююв51192100 1.1 1004976
15:00+14ю5878100 1.4 10051088
18:00+13ююв4982100 0.7 1005713
21:00+11юв31195100 3.4 1004603